Thermopolis, WY

8:51 PM MDT on March 23, 2017 (GMT -0600)
Thermopolis

Weather History for KTBX - January, 2014

Change the Weather History Date:

Thursday, January 9, 2014

  Actual Average (KRIW) Record (KRIW)
Temperature  
Mean Temperature 24 °F -  
Max Temperature 30 °F 24 °F 47 °F (1999)
Min Temperature 19 °F -3 °F -4 °F (2010)
Degree Days  
Heating Degree Days 40    
Moisture  
Dew Point 15 °F    
Average Humidity 66    
Maximum Humidity 93    
Minimum Humidity 51    
Precipitation  
Precipitation 0.00 in - - ()
Sea Level Pressure  
Sea Level Pressure 29.75 in    
Wind  
Wind Speed 17 mph (SSW)    
Max Wind Speed 28 mph    
Max Gust Speed 46 mph    
Visibility 10 miles    
Events Snow    
Averages and records for this station are not official NWS values.
T = Trace of Precipitation, MM = Missing Value Source: NWS Daily Summary

Daily Weather History Graph

Daily Weather History Graph

Search for Another Location

Airport or City:

Trip Planner

Search our weather history database for the weather conditions in past years. The results will help you decide how hot, cold, wet, or windy it might be!

Date:

Astronomy

Jan. 09, 2014 Rise Set
Actual Time 7:45 AM MST 4:55 PM MST
Civil Twilight 7:12 AM MST 5:27 PM MST
Nautical Twilight 6:37 AM MST 6:03 PM MST
Astronomical Twilight 6:02 AM MST 6:37 PM MST
Moon 12:28 PM MST (1/9) 1:51 AM MST (1/9)
Length of Visible Light 10h 14m
Length of Day
9h 10m
Waxing Gibbous, 66% of the Moon is Illuminated
Jan 9
Waxing Gibbous
Jan 15
Full
Jan 23
Last Quarter
Jan 30
New
Feb 6
First Quarter

Hourly Weather History & Observations

Time (MST) Temp. Windchill Dew Point Humidity Pressure Visibility Wind Dir Wind Speed Gust Speed Precip Events Conditions
12:15 AM 23.0 °F 9.2 °F 15.8 °F 74% 29.88 in 10.0 mi SSW 17.3 mph - N/A   Clear
12:35 AM 24.8 °F 11.9 °F 14.0 °F 64% 29.87 in 10.0 mi SSW 16.1 mph 23.0 mph N/A   Clear
12:55 AM 26.6 °F 16.2 °F 14.0 °F 59% 29.87 in 10.0 mi SW 11.5 mph 19.6 mph N/A   Clear
1:15 AM 28.4 °F 15.4 °F 12.2 °F 51% 29.85 in 10.0 mi SW 19.6 mph 25.3 mph N/A   Clear
1:35 AM 26.6 °F 13.8 °F 14.0 °F 59% 29.84 in 10.0 mi SSW 17.3 mph - N/A   Clear
1:55 AM 24.8 °F 12.9 °F 14.0 °F 64% 29.84 in 10.0 mi South 13.8 mph - N/A   Clear
2:15 AM 24.8 °F 13.4 °F 14.0 °F 64% 29.83 in 10.0 mi South 12.7 mph - N/A   Clear
2:35 AM 21.2 °F 10.1 °F 14.0 °F 74% 29.83 in 10.0 mi SE 10.4 mph - N/A   Clear
2:55 AM 19.4 °F 6.0 °F 14.0 °F 80% 29.83 in 10.0 mi South 13.8 mph - N/A   Clear
3:15 AM 23.0 °F 8.7 °F 14.0 °F 68% 29.83 in 10.0 mi South 18.4 mph 26.5 mph N/A   Clear
3:35 AM 23.0 °F 8.7 °F 14.0 °F 68% 29.83 in 10.0 mi SSW 18.4 mph - N/A   Clear
3:55 AM 26.6 °F 11.7 °F 14.0 °F 59% 29.81 in 10.0 mi SW 24.2 mph 32.2 mph N/A   Clear
4:15 AM 24.8 °F 9.0 °F 14.0 °F 64% 29.81 in 10.0 mi SSW 25.3 mph 34.5 mph N/A   Clear
4:35 AM 24.8 °F 9.3 °F 14.0 °F 64% 29.81 in 10.0 mi SW 24.2 mph 29.9 mph N/A   Clear
4:55 AM 26.6 °F 12.0 °F 15.8 °F 64% 29.81 in 10.0 mi SW 23.0 mph 32.2 mph N/A   Clear
5:15 AM 28.4 °F 14.1 °F 15.8 °F 59% 29.80 in 10.0 mi SSW 24.2 mph 33.4 mph N/A   Clear
5:35 AM 26.6 °F 14.3 °F 14.0 °F 59% 29.79 in 10.0 mi South 16.1 mph 27.6 mph N/A   Clear
5:55 AM 24.8 °F 12.4 °F 14.0 °F 64% 29.79 in 10.0 mi South 15.0 mph - N/A   Clear
6:15 AM 24.8 °F 10.7 °F 14.0 °F 64% 29.79 in 10.0 mi South 19.6 mph 29.9 mph N/A   Scattered Clouds
6:35 AM 28.4 °F 13.3 °F 15.8 °F 59% 29.78 in 2.5 mi SW 27.6 mph 46.0 mph N/A Snow Light Snow
6:55 AM 26.6 °F 11.7 °F 14.0 °F 59% 29.78 in 10.0 mi SSW 24.2 mph - N/A   Clear
7:15 AM 26.6 °F 13.1 °F 14.0 °F 59% 29.78 in 10.0 mi SSW 19.6 mph 31.1 mph N/A   Clear
7:35 AM 24.8 °F 10.3 °F 14.0 °F 64% 29.77 in 10.0 mi SSW 20.7 mph - N/A   Clear
7:55 AM 24.8 °F 11.1 °F 14.0 °F 64% 29.77 in 10.0 mi SSW 18.4 mph - N/A   Clear
8:15 AM 24.8 °F 10.7 °F 14.0 °F 64% 29.77 in 10.0 mi South 19.6 mph - N/A   Clear
8:35 AM 26.6 °F 15.7 °F 14.0 °F 59% 29.77 in 10.0 mi SSE 12.7 mph - N/A   Clear
8:55 AM 24.8 °F 14.6 °F 14.0 °F 64% 29.78 in 10.0 mi SE 10.4 mph - N/A   Clear
9:15 AM 24.8 °F 10.7 °F 15.8 °F 69% 29.76 in 10.0 mi SSE 19.6 mph - N/A   Clear
9:35 AM 24.8 °F 10.3 °F 15.8 °F 69% 29.76 in 10.0 mi SSE 20.7 mph 25.3 mph N/A   Mostly Cloudy
9:55 AM 26.6 °F 14.7 °F 15.8 °F 64% 29.75 in 10.0 mi SSE 15.0 mph - N/A   Mostly Cloudy
10:15 AM 24.8 °F 11.5 °F 15.8 °F 69% 29.75 in 10.0 mi SSE 17.3 mph 20.7 mph N/A   Scattered Clouds
10:35 AM 24.8 °F 12.9 °F 15.8 °F 69% 29.76 in 10.0 mi SSE 13.8 mph - N/A   Scattered Clouds
10:55 AM 26.6 °F 16.8 °F 14.0 °F 59% 29.75 in 10.0 mi SSE 10.4 mph - N/A   Clear
11:15 AM 23.0 °F 11.7 °F 15.8 °F 74% 29.75 in 10.0 mi SE 11.5 mph - N/A   Clear
11:35 AM 23.0 °F 10.6 °F 15.8 °F 74% 29.72 in 10.0 mi SE 13.8 mph - N/A   Clear
11:55 AM 23.0 °F 10.1 °F 17.6 °F 80% 29.72 in 10.0 mi SSE 15.0 mph - N/A   Mostly Cloudy
12:15 PM 26.6 °F 15.7 °F 15.8 °F 64% 29.72 in 10.0 mi SSE 12.7 mph - N/A   Overcast
12:35 PM 28.4 °F 16.6 °F 14.0 °F 55% 29.71 in 10.0 mi SSE 16.1 mph - N/A   Mostly Cloudy
12:55 PM 28.4 °F 17.5 °F 14.0 °F 55% 29.70 in 10.0 mi South 13.8 mph - N/A   Clear
1:35 PM 28.4 °F 18.0 °F 14.0 °F 55% 29.69 in 10.0 mi SSE 12.7 mph - N/A   Scattered Clouds
1:55 PM 28.4 °F 20.4 °F 14.0 °F 55% 29.68 in 10.0 mi SSE 8.1 mph - N/A   Clear
2:15 PM 30.2 °F 24.3 °F 14.0 °F 51% 29.68 in 10.0 mi SSE 5.8 mph - N/A   Clear
2:35 PM 30.2 °F 22.6 °F 14.0 °F 51% 29.69 in 10.0 mi South 8.1 mph - N/A   Clear
2:55 PM 30.2 °F 20.8 °F 14.0 °F 51% 29.69 in 10.0 mi South 11.5 mph - N/A   Clear
3:15 PM 30.2 °F 23.4 °F 15.8 °F 55% 29.68 in 10.0 mi South 6.9 mph - N/A   Clear
4:15 PM 28.4 °F 18.5 °F 15.8 °F 59% 29.68 in 10.0 mi SSE 11.5 mph 17.3 mph N/A   Clear
4:35 PM 28.4 °F 18.0 °F 17.6 °F 64% 29.68 in 10.0 mi South 12.7 mph - N/A   Clear
4:55 PM 28.4 °F 17.5 °F 17.6 °F 64% 29.69 in 10.0 mi South 13.8 mph 20.7 mph N/A   Clear
5:15 PM 28.4 °F 16.2 °F 17.6 °F 64% 29.68 in 10.0 mi SSW 17.3 mph 27.6 mph N/A   Clear
5:35 PM 28.4 °F 15.4 °F 17.6 °F 64% 29.69 in 10.0 mi SW 19.6 mph 26.5 mph N/A   Scattered Clouds
5:55 PM 26.6 °F 12.0 °F 14.0 °F 59% 29.69 in 10.0 mi West 23.0 mph - N/A   Scattered Clouds
6:15 PM 26.6 °F 12.7 °F 14.0 °F 59% 29.70 in 10.0 mi WSW 20.7 mph - N/A   Clear
6:35 PM 26.6 °F 12.4 °F 14.0 °F 59% 29.69 in 10.0 mi WSW 21.9 mph - N/A   Clear
6:55 PM 26.6 °F 13.8 °F 12.2 °F 55% 29.69 in 10.0 mi WSW 17.3 mph - N/A   Scattered Clouds
7:15 PM 26.6 °F 16.2 °F 10.4 °F 51% 29.70 in 10.0 mi West 11.5 mph - N/A   Mostly Cloudy
7:35 PM 26.6 °F 15.7 °F 14.0 °F 59% 29.71 in 10.0 mi NNW 12.7 mph - N/A   Overcast
7:55 PM 24.8 °F 11.9 °F 23.0 °F 93% 29.70 in 1.2 mi NNW 16.1 mph - N/A Snow Light Snow
8:15 PM 24.8 °F 11.9 °F 23.0 °F 93% 29.70 in 1.8 mi NNW 16.1 mph - N/A Snow Light Snow
8:35 PM 24.8 °F 12.9 °F 21.2 °F 86% 29.70 in 10.0 mi NNW 13.8 mph - N/A   Overcast
8:55 PM 24.8 °F 10.3 °F 21.2 °F 86% 29.70 in 10.0 mi NNW 20.7 mph - N/A   Overcast
9:15 PM 24.8 °F 9.3 °F 21.2 °F 86% 29.70 in 10.0 mi NW 24.2 mph - N/A   Overcast
9:35 PM 23.0 °F 8.0 °F 19.4 °F 86% 29.71 in 10.0 mi NNW 20.7 mph - N/A   Overcast
9:55 PM 23.0 °F 8.7 °F 19.4 °F 86% 29.71 in 10.0 mi NW 18.4 mph - N/A   Mostly Cloudy
10:15 PM 23.0 °F 9.6 °F 17.6 °F 80% 29.72 in 10.0 mi NW 16.1 mph - N/A   Scattered Clouds
10:35 PM 23.0 °F 10.1 °F 17.6 °F 80% 29.73 in 10.0 mi NW 15.0 mph - N/A   Clear
10:55 PM 24.8 °F 14.6 °F 17.6 °F 74% 29.73 in 10.0 mi NNW 10.4 mph - N/A   Scattered Clouds
11:15 PM 24.8 °F 19.1 °F 15.8 °F 69% 29.73 in 10.0 mi North 4.6 mph - N/A   Mostly Cloudy